TimeEDT,TemperatureF,Dew PointF,Humidity,Sea Level PressureIn,VisibilityMPH,Wind Direction,Wind SpeedMPH,Gust SpeedMPH,PrecipitationIn,Events,Conditions,WindDirDegrees,DateUTC
12:15 AM,39.2,28.4,65,30.27,10.0,Calm,Calm,-,N/A,,Clear,0,2013-03-27 04:15:00
12:35 AM,39.2,28.4,65,30.28,10.0,Calm,Calm,-,N/A,,Clear,0,2013-03-27 04:35:00
12:55 AM,39.2,28.4,65,30.28,10.0,Calm,Calm,-,N/A,,Clear,0,2013-03-27 04:55:00
1:15 AM,37.4,28.4,70,30.28,10.0,Calm,Calm,-,N/A,,Clear,0,2013-03-27 05:15:00
1:35 AM,37.4,28.4,70,30.28,10.0,Calm,Calm,-,N/A,,Clear,0,2013-03-27 05:35:00
1:55 AM,35.6,26.6,70,30.28,10.0,Calm,Calm,-,N/A,,Clear,0,2013-03-27 05:55:00
2:15 AM,35.6,28.4,75,30.27,10.0,Calm,Calm,-,N/A,,Clear,0,2013-03-27 06:15:00
2:35 AM,35.6,28.4,75,30.27,10.0,North,3.5,-,N/A,,Clear,360,2013-03-27 06:35:00
2:55 AM,35.6,28.4,75,30.27,10.0,North,3.5,-,N/A,,Clear,350,2013-03-27 06:55:00
3:15 AM,35.6,28.4,75,30.26,10.0,North,3.5,-,N/A,,Clear,360,2013-03-27 07:15:00
3:35 AM,35.6,28.4,75,30.26,10.0,NNW,4.6,-,N/A,,Clear,340,2013-03-27 07:35:00
3:55 AM,35.6,26.6,70,30.26,10.0,Calm,Calm,-,N/A,,Clear,0,2013-03-27 07:55:00
4:15 AM,35.6,26.6,70,30.26,10.0,North,3.5,-,N/A,,Clear,350,2013-03-27 08:15:00
4:35 AM,35.6,26.6,70,30.26,10.0,North,4.6,-,N/A,,Clear,360,2013-03-27 08:35:00
4:55 AM,35.6,26.6,70,30.26,10.0,North,4.6,-,N/A,,Clear,360,2013-03-27 08:55:00
5:15 AM,35.6,26.6,70,30.27,10.0,NNW,4.6,-,N/A,,Clear,340,2013-03-27 09:15:00
5:35 AM,33.8,26.6,75,30.27,10.0,NNW,5.8,-,N/A,,Clear,340,2013-03-27 09:35:00
5:55 AM,33.8,26.6,75,30.28,10.0,North,4.6,-,N/A,,Clear,350,2013-03-27 09:55:00
6:15 AM,35.6,26.6,70,30.28,10.0,North,4.6,-,N/A,,Clear,350,2013-03-27 10:15:00
6:35 AM,35.6,26.6,70,30.29,10.0,North,3.5,-,N/A,,Clear,350,2013-03-27 10:35:00
6:50 AM,35.6,24.8,65,30.29,10.0,North,3.5,-,N/A,,Clear,350,2013-03-27 10:50:00
7:50 AM,32.0,24.8,75,30.31,10.0,Calm,Calm,-,N/A,,Clear,0,2013-03-27 11:50:00
8:50 AM,39.2,28.4,65,30.33,10.0,North,8.1,-,N/A,,Clear,350,2013-03-27 12:50:00
9:50 AM,44.6,26.6,49,30.35,10.0,NNE,8.1,-,N/A,,Clear,20,2013-03-27 13:50:00
10:50 AM,48.2,24.8,40,30.35,10.0,North,10.4,-,N/A,,Clear,360,2013-03-27 14:50:00
11:50 AM,51.8,24.8,35,30.34,10.0,NNW,9.2,-,N/A,,Clear,330,2013-03-27 15:50:00
12:50 PM,55.4,24.8,31,30.32,10.0,West,11.5,-,N/A,,Clear,280,2013-03-27 16:50:00
1:50 PM,57.2,24.8,29,30.30,10.0,NW,10.4,-,N/A,,Clear,310,2013-03-27 17:50:00
2:50 PM,60.8,24.8,25,30.27,10.0,NNW,6.9,18.4,N/A,,Clear,340,2013-03-27 18:50:00
3:50 PM,60.8,24.8,25,30.24,10.0,West,8.1,17.3,N/A,,Clear,280,2013-03-27 19:50:00
4:50 PM,60.8,23.0,23,30.23,10.0,NW,8.1,-,N/A,,Clear,310,2013-03-27 20:50:00
5:50 PM,60.8,23.0,23,30.23,10.0,NNW,11.5,17.3,N/A,,Clear,330,2013-03-27 21:50:00
6:50 PM,57.2,32.0,38,30.24,10.0,West,8.1,-,N/A,,Clear,270,2013-03-27 22:50:00
7:55 PM,51.8,33.8,50,30.26,10.0,WSW,5.8,-,N/A,,Clear,240,2013-03-27 23:55:00
8:15 PM,50.0,33.8,54,30.26,10.0,WSW,6.9,-,N/A,,Clear,240,2013-03-28 00:15:00
8:35 PM,48.2,33.8,58,30.27,10.0,SW,6.9,-,N/A,,Clear,220,2013-03-28 00:35:00
8:55 PM,48.2,35.6,62,30.27,10.0,WSW,5.8,-,N/A,,Clear,240,2013-03-28 00:55:00
9:15 PM,48.2,35.6,62,30.28,10.0,West,4.6,-,N/A,,Clear,260,2013-03-28 01:15:00
9:35 PM,46.4,35.6,66,30.29,10.0,Calm,Calm,-,N/A,,Clear,0,2013-03-28 01:35:00
9:55 PM,46.4,35.6,66,30.28,10.0,Calm,Calm,-,N/A,,Clear,0,2013-03-28 01:55:00
10:15 PM,44.6,35.6,71,30.29,10.0,West,3.5,-,N/A,,Clear,260,2013-03-28 02:15:00
10:35 PM,44.6,33.8,66,30.29,10.0,Calm,Calm,-,N/A,,Clear,0,2013-03-28 02:35:00
10:55 PM,42.8,33.8,70,30.30,10.0,Calm,Calm,-,N/A,,Clear,0,2013-03-28 02:55:00
11:15 PM,42.8,33.8,70,30.30,10.0,Calm,Calm,-,N/A,,Clear,0,2013-03-28 03:15:00
11:35 PM,39.2,33.8,81,30.30,10.0,Calm,Calm,-,N/A,,Clear,0,2013-03-28 03:35:00
11:55 PM,42.8,33.8,70,30.30,10.0,West,3.5,-,N/A,,Clear,280,2013-03-28 03:55:00